Portada
METAR-TAF:

METAR-TAF

Aeroports :

Thoothukudi, Índia

latitud: 8-43-27N, longitud: 78-01-33E, altitud: 39 m

Observació

L'informe es va fer fa 8 hores i 2 minuts, a les 12:00 UTC
Vent 14 kt del Sud
Temperatura 31°C
Humitat 66%
Pressió 1005 hPa
Visibilitat: 6000 m
Escasses núvols a una alçada de 2000 ft
Escasses núvols a una alçada de 3000 ft, Cumulonimbus.

METAR: VOTK 171200Z 17014KT 6000 FEW020 FEW030CB 31/24 Q1005 NOSIG

Hora: 01:32 (20:02 UTC)


TAF: manca

Observacions i pronòstics meteorològics de més de 4000 aeroports (METAR i TAF).

Les estacions disponibles són els punts grocs i vermells al mapa.

Posi el ratolí al punt desitjat per veure el nom de l'estació.

Feu clic per veure les observacions i els pronòstics meteorològics.

Per canviar el mapa: feu clic els botons verds amb una creu de color negre per apropar; al botó verd amb un guió per allunyar la imatge; o en les fletxes verdes per a mapes adjacents.


METAR-TAF: